EW4907 Weather Reports


Display with metric or nautical units.
time (UTC)temp
F
wind
direction
speed
MPH
gust
MPH
rain 1hr
in
rain 24hr
in
rain mn
in
humidity
%
barometer
mb
20260903090040 77 180 6.0 12.0 0.00 0.00 0.00 88 1012.5
20260903084538 77 173 5.0 11.0 0.00 0.00 0.00 87 1012.5
20260903083037 77 157 5.0 12.0 0.00 0.00 0.00 87 1012.5
20260903081540 77 221 5.0 11.0 0.00 0.00 0.00 86 1012.5
20260903080034 78 167 5.0 10.0 0.00 0.00 0.00 85 1012.6
20260903074534 78 202 5.0 11.0 0.00 0.00 0.00 84 1012.7
20260903073030 78 189 5.0 10.0 0.00 0.00 0.00 84 1012.9
20260903071528 78 173 5.0 10.0 0.00 0.00 0.00 82 1012.8
20260903070031 79 144 6.0 11.0 0.00 0.00 0.00 81 1012.9
20260903064524 79 195 5.0 12.0 0.00 0.00 0.00 80 1013.0
20260903063021 80 136 6.0 13.0 0.00 0.00 0.00 79 1013.0
20260903061519 80 164 6.0 14.0 0.00 0.00 0.00 76 1013.1
20260903060017 81 144 7.0 15.0 0.00 0.00 0.00 73 1013.1
20260903054522 81 171 7.0 14.0 0.00 0.00 0.00 71 1013.2
20260903053011 82 163 8.0 19.0 0.00 0.00 0.00 69 1013.2
20260903051508 82 173 8.0 17.0 0.00 0.00 0.00 67 1013.0
20260903050005 83 131 8.0 16.0 0.00 0.00 0.00 66 1012.9
20260903044504 83 138 5.0 12.0 0.00 0.00 0.00 65 1012.8
20260903043003 83 118 4.0 12.0 0.00 0.00 0.00 64 1012.7
20260903041505 83 124 5.0 10.0 0.00 0.00 0.00 63 1012.6
20260903040003 84 143 5.0 11.0 0.00 0.00 0.00 62 1012.5
20260903034503 84 104 5.0 13.0 0.00 0.00 0.00 60 1012.6
20260903033000 85 91 6.0 17.0 0.00 0.00 0.00 59 1012.5
20260903031600 85 102 5.0 9.0 0.00 0.00 0.00 58 1012.4
20260903030100 86 86 4.0 8.0 0.00 0.00 0.00 57 1011.9
20260903024559 86 62 4.0 8.0 0.00 0.00 0.00 56 1011.7
20260903023059 87 135 3.0 6.0 0.00 0.00 0.00 55 1011.5
20260903021558 88 138 3.0 6.0 0.00 0.00 0.00 53 1011.3
20260903020059 88 91 3.0 5.0 0.00 0.00 0.00 52 1010.9
20260903014609 89 70 3.0 8.0 0.00 0.00 0.00 51 1010.8
20260903013055 91 89 2.0 3.0 0.00 0.00 0.00 47 1010.6
20260903011556 91 84 2.0 3.0 0.00 0.00 0.00 46 1010.6
20260903010055 92 82 2.0 3.0 0.00 0.00 0.00 46 1010.5
20260903004554 93 146 1.0 3.0 0.00 0.00 0.00 43 1010.5
20260903003053 94 123 0.0 2.0 0.00 0.00 0.00 41 1010.5
20260903001555 94 137 1.0 3.0 0.00 0.00 0.00 41 1010.5
20260903000052 95 145 1.0 4.0 0.00 0.00 0.00 40 1010.6
20260902234550 97 105 2.0 5.0 0.00 0.00 0.00 38 1010.6
20260902233049 97 100 0.0 5.0 0.00 0.00 0.00 39 1010.6
20260902231549 98 153 3.0 6.0 0.00 0.00 0.00 38 1010.7
20260902230048 98 176 1.0 4.0 0.00 0.00 0.00 38 1010.7
20260902224550 97 143 3.0 6.0 0.00 0.00 0.00 40 1010.7
20260902223046 96 197 3.0 7.0 0.00 0.00 0.00 41 1010.7
20260902221544 95 179 3.0 5.0 0.00 0.00 0.00 42 1010.9
20260902220043 93 164 4.0 8.0 0.00 0.00 0.00 44 1010.9
20260902214543 93 182 3.0 10.0 0.00 0.00 0.00 45 1011.1
20260902213040 93 174 6.0 10.0 0.00 0.00 0.00 47 1011.3
20260902211539 94 179 5.0 11.0 0.00 0.00 0.00 46 1011.4
20260902210051 94 176 2.0 7.0 0.00 0.00 0.00 46 1011.5
20260902204536 94 195 4.0 8.0 0.00 0.00 0.00 45 1011.8
20260902203034 95 147 3.0 7.0 0.00 0.00 0.00 44 1011.9
20260902201537 94 119 4.0 7.0 0.00 0.00 0.00 46 1012.1
20260902200034 92 138 4.0 8.0 0.00 0.00 0.00 47 1012.3
20260902194536 93 84 3.0 6.0 0.00 0.00 0.00 47 1012.5
20260902193028 92 71 2.0 8.0 0.00 0.00 0.00 46 1012.8
20260902191529 93 44 6.0 14.0 0.00 0.00 0.00 45 1012.9
20260902190025 96 127 0.0 3.0 0.00 0.00 0.00 40 1013.1
20260902184523 96 226 5.0 11.0 0.00 0.00 0.00 39 1013.3
20260902183020 97 143 3.0 8.0 0.00 0.00 0.00 42 1013.4
20260902181516 94 248 1.0 10.0 0.00 0.00 0.00 43 1013.8
20260902180020 96 320 4.0 7.0 0.00 0.00 0.00 41 1014.0
20260902174515 93 333 4.0 8.0 0.00 0.00 0.00 44 1014.4
20260902173015 95 264 3.0 6.0 0.00 0.00 0.00 42 1014.7
20260902171511 94 297 2.0 7.0 0.00 0.00 0.00 44 1014.8
20260902170009 93 221 4.0 10.0 0.00 0.00 0.00 46 1015.0
20260902164509 92 153 3.0 12.0 0.00 0.00 0.00 47 1015.1
20260902163005 92 305 4.0 10.0 0.00 0.00 0.00 48 1015.2
20260902161502 90 233 3.0 8.0 0.00 0.00 0.00 51 1015.4
20260902154558 88 236 4.0 8.0 0.00 0.00 0.00 54 1015.3
20260902153055 87 209 2.0 9.0 0.00 0.00 0.00 59 1015.3
20260902151559 86 186 2.0 9.0 0.00 0.00 0.00 62 1015.2
20260902150048 85 234 4.0 7.0 0.00 0.00 0.00 64 1015.4
20260902144545 83 221 2.0 7.0 0.00 0.00 0.00 68 1015.5
20260902143041 82 264 6.0 12.0 0.00 0.00 0.00 68 1015.4
20260902141542 81 231 2.0 7.0 0.00 0.00 0.00 74 1015.4
20260902140042 80 254 4.0 10.0 0.00 0.00 0.00 76 1015.3
20260902134549 79 242 4.0 8.0 0.00 0.00 0.00 78 1015.2
20260902133034 78 225 3.0 8.0 0.00 0.00 0.00 78 1015.1
20260902131544 77 255 3.0 6.0 0.00 0.00 0.00 79 1015.0
20260902130032 77 229 2.0 5.0 0.00 0.00 0.00 79 1014.9
20260902124534 76 245 1.0 3.0 0.00 0.00 0.00 80 1014.8
20260902123029 75 236 2.0 4.0 0.00 0.00 0.00 80 1014.5
20260902121528 75 232 2.0 5.0 0.00 0.00 0.00 80 1014.5
20260902120031 76 228 2.0 4.0 0.00 0.00 0.00 79 1014.5
20260902114527 76 225 1.0 3.0 0.00 0.00 0.00 79 1014.5
20260902113024 76 187 1.0 3.0 0.00 0.00 0.00 78 1014.4
20260902111522 77 248 0.0 4.0 0.00 0.00 0.00 77 1014.4
20260902110021 77 252 0.0 2.0 0.00 0.00 0.00 76 1014.4
20260902104520 77 293 1.0 4.0 0.00 0.00 0.00 76 1014.2
20260902103019 77 236 1.0 7.0 0.00 0.00 0.00 76 1014.1
20260902101519 77 268 2.0 8.0 0.00 0.00 0.00 75 1014.1
20260902100018 77 253 4.0 12.0 0.00 0.00 0.00 76 1014.0
20260902094516 77 248 3.0 8.0 0.00 0.00 0.00 76 1014.0
20260902093014 78 255 3.0 9.0 0.00 0.00 0.00 75 1014.0
20260902091523 78 252 4.0 9.0 0.00 0.00 0.00 75 1014.0